This is the latest recevied weather packets stored in our database for station/object R2BLN-13. If no packets are shown the sender has not sent any weather packets the latest 10 day(s).
| Time | Temp. | Humidity | Pressure | Rain* | Wind** | Luminosity | Snow |
|---|---|---|---|---|---|---|---|
| 1788097066 | 17.78° C | 69% | 994.3 hPa | - | - | - | - |
| 1788096465 | 17.78° C | 69% | 994.4 hPa | - | - | - | - |
| 1788095866 | 17.78° C | 68% | 994.6 hPa | - | - | - | - |
| 1788095266 | 17.78° C | 66% | 994.3 hPa | - | - | - | - |
| 1788094666 | 17.78° C | 66% | 994.4 hPa | - | - | - | - |
| 1788094066 | 18.33° C | 65% | 994.4 hPa | - | - | - | - |
| 1788093466 | 18.33° C | 64% | 994.3 hPa | - | - | - | - |
| 1788092866 | 18.89° C | 65% | 994.4 hPa | - | - | - | - |
| 1788092266 | 18.89° C | 64% | 994.5 hPa | - | - | - | - |
| 1788091666 | 19.44° C | 62% | 994.7 hPa | - | - | - | - |
| 1788091067 | 19.44° C | 62% | 994.8 hPa | - | - | - | - |
| 1788090466 | 20° C | 61% | 995 hPa | - | - | - | - |
| 1788089858 | 20° C | 60% | 994.8 hPa | - | - | - | - |
| 1788089236 | 20.56° C | 59% | 994.8 hPa | - | - | - | - |
| 1788088636 | 20.56° C | 58% | 995.1 hPa | - | - | - | - |
| 1788088036 | 20° C | 58% | 995.2 hPa | - | - | - | - |
| 1788087436 | 20° C | 58% | 995.1 hPa | - | - | - | - |
| 1788086836 | 20.56° C | 56% | 995.3 hPa | - | - | - | - |
| 1788086236 | 20.56° C | 55% | 995.4 hPa | - | - | - | - |
| 1788085636 | 20.56° C | 55% | 995.6 hPa | - | - | - | - |
| 1788085036 | 21.11° C | 54% | 995.6 hPa | - | - | - | - |
| 1788084436 | 21.11° C | 51% | 995.4 hPa | - | - | - | - |
| 1788083836 | 21.67° C | 51% | 995.3 hPa | - | - | - | - |
| 1788083236 | 21.11° C | 52% | 995.4 hPa | - | - | - | - |
| 1788082636 | 21.11° C | 49% | 995.4 hPa | - | - | - | - |
* Rain since midnight (hover to see other rain measurements)
** Current wind speed in m/s (hover to see current wind gust speed)